Location: Kitchener-Waterloo
(43.4500°N, 80.5000°W)
Time: 01:21:52
(UTC-04:00)

Amateur Radio Satellites - All Passes

Search period start: 26 September 2016 00:51
Search period end: 27 September 2016 00:51
Location: Kitchener-Waterloo, 43.4500°N, 80.5000°W

Satellite Date Start Highest point End Downlink Frequencies (MHz)
Time Altitude Azimuth
JAS-2 26 Sep 00:52:38 01:00:18 51° 98° (E) 01:07:40 435.910
SPROUT 26 Sep 00:55:37 00:59:54 81° 259° (W) 01:04:11 437.525
ISS 26 Sep 00:55:43 00:58:12 19° 356° (N) 01:00:40 145.825
UNISAT 6 26 Sep 01:02:13 01:05:05 17° 296° (WNW) 01:08:00 437.425
UKube-1 26 Sep 01:04:53 01:09:12 70° 257° (WSW) 01:13:33 .
QB50P1 26 Sep 01:08:00 01:12:13 89° 94° (E) 01:16:26 145.935-145.965
DUCHIFAT 1 26 Sep 01:08:32 01:12:44 79° 104° (ESE) 01:16:55 145.980
BUGSAT 1 26 Sep 01:20:53 01:24:43 42° 99° (E) 01:28:32 437.445
POPSAT HIP 1 26 Sep 01:21:20 01:25:30 67° 286° (WNW) 01:29:41 437.405
ESTCUBE 1 26 Sep 01:22:27 01:24:44 14° 270° (W) 01:27:02 437.505/2401.250
M-CUBED/EXP-1 PRIME 26 Sep 01:22:33 01:25:30 18° 260° (W) 01:28:19 437.505
DX 1 26 Sep 01:29:36 01:33:28 30° 263° (W) 01:37:20 434.975-435.025
VELOX 1 26 Sep 01:30:30 01:33:50 20° 267° (W) 01:37:10 145.980
ITUPSAT 1 26 Sep 01:36:58 01:39:27 14° 60° (ENE) 01:41:55 437.325
BEESAT 3 26 Sep 01:39:11 01:42:23 25° 114° (ESE) 01:45:37 437.485
NANOSAT C BR1 26 Sep 01:39:29 01:43:28 43° 289° (WNW) 01:47:27 145.865
CUBEBUG 1 26 Sep 01:42:35 01:44:27 12° 270° (W) 01:46:20 437.445
SWISSCUBE 26 Sep 01:50:07 01:53:38 21° 63° (ENE) 01:57:10 437.505
RS-15 26 Sep 01:54:14 02:04:03 27° 0° (N) 02:14:01 29.354- 29.394
QB50P2 26 Sep 02:01:08 02:04:32 24° 293° (WNW) 02:07:55 145.880/145.840
BEESAT 26 Sep 02:03:00 02:06:49 25° 65° (ENE) 02:10:40 436.000
POLYITAN 1 26 Sep 02:03:23 02:06:46 24° 293° (WNW) 02:10:08 437.675
Cosmos 2491 26 Sep 02:05:29 02:13:44 41° 71° (ENE) 02:21:54 435.465 / 435.565
SO-50 26 Sep 02:22:30 02:26:04 23° 248° (WSW) 02:29:35 436.795
TISAT 1 26 Sep 02:24:45 02:28:43 40° 262° (W) 02:32:41 437.305
BEESAT 2 26 Sep 02:29:16 02:33:00 42° 118° (ESE) 02:36:46 435.950
ISS 26 Sep 02:32:35 02:35:26 26° 17° (NNE) 02:38:17 145.825
Oscar 19 26 Sep 02:36:42 02:41:46 52° 100° (E) 02:46:46 437.125/150
JAS-2 26 Sep 02:37:56 02:45:02 39° 297° (WNW) 02:51:58 435.910
DUCHIFAT 1 26 Sep 02:46:49 02:47:47 11° 300° (WNW) 02:48:46 145.980
BUGSAT 1 26 Sep 02:57:11 02:59:47 17° 296° (WNW) 03:02:22 437.445
YUBILEINY 26 Sep 03:07:44 03:15:35 38° 85° (E) 03:23:24 435.215
ITUPSAT 1 26 Sep 03:11:55 03:16:40 75° 257° (WSW) 03:21:28 437.325
Gurwin Techsat 1B 26 Sep 03:16:13 03:21:29 59° 101° (E) 03:26:44 435.225
BEESAT 3 26 Sep 03:16:21 03:19:54 32° 312° (NW) 03:23:30 437.485
ITAMSAT 1 26 Sep 03:25:39 03:29:30 20° 93° (E) 03:33:19 435.822/435.867
SWISSCUBE 26 Sep 03:26:32 03:31:06 47° 261° (W) 03:35:43 437.505
Cosmos 2504 26 Sep 03:33:29 03:37:57 17° 80° (E) 03:42:19 435.465 / 435.565
STARS 26 Sep 03:36:36 03:38:16 12° 60° (ENE) 03:39:56 437.465
BEESAT 26 Sep 03:39:58 03:44:23 38° 262° (W) 03:48:52 436.000
MOZHAYETS 4 26 Sep 03:48:37 03:52:57 45° 71° (ENE) 03:57:21
Cosmos 2491 26 Sep 04:02:22 04:10:41 48° 272° (W) 04:18:58 435.465 / 435.565
BEESAT 2 26 Sep 04:07:52 04:10:59 22° 316° (NW) 04:14:09 435.950
ISS 26 Sep 04:08:54 04:12:11 72° 215° (SW) 04:15:27 145.825
RS-15 26 Sep 04:09:38 04:21:09 42° 34° (NE) 04:32:32 29.354- 29.394
AO-7 26 Sep 04:10:48 04:17:59 31° 96° (E) 04:25:06 29.400- 29.500
Oscar 19 26 Sep 04:16:51 04:20:42 22° 298° (WNW) 04:24:32 437.125/150
KKS-1 26 Sep 04:29:51 04:34:18 83° 77° (ENE) 04:38:47 437.445
AIST 2 26 Sep 04:32:47 04:36:25 31° 115° (ESE) 04:40:05 435.215
Gurwin Techsat 1B 26 Sep 04:57:10 05:01:00 21° 298° (WNW) 05:04:49 435.225
AIST 1 26 Sep 04:58:30 04:59:34 11° 83° (E) 05:00:39
CUBESAT XI-V 26 Sep 05:02:28 05:06:45 37° 69° (ENE) 05:11:05 437.345
YUBILEINY 26 Sep 05:03:40 05:12:08 50° 286° (WNW) 05:20:36 435.215
ITAMSAT 1 26 Sep 05:04:11 05:09:16 53° 289° (WNW) 05:14:20 435.822/435.867
PCSat 26 Sep 05:04:17 05:09:09 35° 111° (ESE) 05:14:02 145.827
STARS 26 Sep 05:09:37 05:14:00 77° 257° (WSW) 05:18:24 437.465
Cosmos 2504 26 Sep 05:22:54 05:30:23 82° 279° (W) 05:37:36 435.465 / 435.565
MOZHAYETS 4 26 Sep 05:27:07 05:30:21 19° 268° (W) 05:33:36
HORYU 2 26 Sep 05:40:53 05:44:08 20° 93° (E) 05:47:23 437.375
DANDE 26 Sep 05:49:05 05:53:49 16° 56° (NE) 05:58:33 436.750
AO-7 26 Sep 06:03:03 06:11:11 62° 295° (WNW) 06:19:18 29.400- 29.500
AIST 2 26 Sep 06:11:16 06:14:53 29° 314° (NW) 06:18:32 435.215
CUSAT 1 26 Sep 06:20:36 06:28:08 45° 70° (ENE) 06:34:41 437.405
AO-85 26 Sep 06:22:32 06:26:28 36° 48° (NE) 06:30:09 145.980
RS-15 26 Sep 06:22:34 06:34:58 79° 241° (WSW) 06:47:03 29.354- 29.394
BRITE-PL 26 Sep 06:31:41 06:36:18 39° 96° (E) 06:40:34 437.365/2234.400
AIST 1 26 Sep 06:32:09 06:36:32 69° 280° (W) 06:40:55
GOMX 1 26 Sep 06:33:02 06:35:44 16° 89° (E) 06:38:22 467.674
NOAA 15 26 Sep 06:39:23 06:43:33 23° 93° (E) 06:47:39 137.62
CUBESAT XI-V 26 Sep 06:40:22 06:44:12 25° 266° (W) 06:48:04 437.345
PCSat 26 Sep 06:47:28 06:52:29 38° 310° (NW) 06:57:33 145.827
Cubesat XI-IV 26 Sep 06:47:54 06:52:02 22° 93° (E) 06:56:11 437.490
CUTE-I 26 Sep 06:48:42 06:52:54 23° 93° (E) 06:57:06 437.470
STRAND 1 26 Sep 06:51:42 06:55:58 28° 65° (ENE) 07:00:15 437.568
DOVE 4 26 Sep 07:05:21 07:07:30 14° 90° (E) 07:09:38 437.250
NOAA 18 26 Sep 07:11:49 07:16:32 29° 96° (E) 07:21:15 137.9125
HORYU 2 26 Sep 07:16:40 07:20:52 41° 290° (WNW) 07:25:02 437.375
Cosmos 2504 26 Sep 07:20:59 07:24:56 15° 299° (WNW) 07:28:52 435.465 / 435.565
DANDE 26 Sep 07:29:57 07:38:15 64° 76° (ENE) 07:46:14 436.750
LilacSat-2 26 Sep 07:35:43 07:39:33 70° 102° (ESE) 07:43:23 437.200
GONETS M04 26 Sep 07:35:49 07:38:39 12° 71° (ENE) 07:41:30
AO-7 26 Sep 07:57:53 08:02:20 16° 316° (NW) 08:06:47 29.400- 29.500
CUSAT 1 26 Sep 08:02:52 08:10:03 40° 272° (W) 08:16:17 437.405
AO-85 26 Sep 08:03:25 08:06:39 22° 248° (WSW) 08:09:44 145.980
GOMX 1 26 Sep 08:09:52 08:14:13 47° 289° (WNW) 08:18:18 467.674
BRITE-PL 26 Sep 08:10:36 08:14:32 24° 296° (WNW) 08:18:12 437.365/2234.400
O/OREOS (USA 219) 26 Sep 08:11:34 08:15:59 53° 108° (ESE) 08:20:28 437.305
NOAA 15 26 Sep 08:18:27 08:23:33 48° 291° (WNW) 08:28:37 137.62
Cubesat XI-IV 26 Sep 08:27:13 08:32:22 50° 290° (WNW) 08:37:32 437.490
CUTE-I 26 Sep 08:28:03 08:33:11 49° 290° (WNW) 08:38:19 437.470
STRAND 1 26 Sep 08:30:14 08:34:59 39° 262° (W) 08:39:45 437.568
CINEMA 3 26 Sep 08:30:53 08:34:34 30° 96° (E) 08:38:17 145.822/145.860
RS-15 26 Sep 08:37:18 08:45:24 21° 263° (W) 08:53:24 29.354- 29.394
DOVE 4 26 Sep 08:41:28 08:45:36 50° 287° (WNW) 08:49:36 437.250
Cosmos 2499 26 Sep 08:41:31 08:47:06 25° 83° (E) 08:52:36 435.465 / 435.565
NOAA 18 26 Sep 08:52:13 08:57:16 40° 293° (WNW) 09:02:20 137.9125
PRISM 26 Sep 08:57:51 09:01:48 44° 71° (ENE) 09:05:49 437.425
COMPASS 1 26 Sep 09:02:40 09:06:08 24° 94° (E) 09:09:34 437.405
HO-68 26 Sep 09:11:28 09:18:33 60° 102° (ESE) 09:25:36 435.675
LilacSat-2 26 Sep 09:13:05 09:13:17 10° 298° (WNW) 09:13:30 437.200
DANDE 26 Sep 09:13:28 09:20:31 32° 275° (W) 09:27:21 436.750
ZACube-1 26 Sep 09:14:20 09:14:56 10° 89° (E) 09:15:33 437.345
Oscar 11 26 Sep 09:16:09 09:16:54 10° 88° (E) 09:17:39 145.826/435.025
CUTE 1.7 + AOD 2 26 Sep 09:21:41 09:26:01 82° 102° (ESE) 09:30:19 437.475
CANX-2 26 Sep 09:22:32 09:26:52 84° 281° (W) 09:31:10 2200.000
GONETS M04 26 Sep 09:24:54 09:33:35 65° 92° (E) 09:42:18
ANTELSAT 26 Sep 09:26:07 09:27:51 12° 61° (ENE) 09:29:34 437.575/2403.000
SEEDS 26 Sep 09:26:52 09:31:08 65° 101° (E) 09:35:21 437.485
TIGRISAT 26 Sep 09:45:49 09:48:46 18° 65° (ENE) 09:51:42 435.000
CUBEBUG 2 26 Sep 09:51:23 09:55:36 64° 101° (E) 09:59:56 437.445
O/OREOS (USA 219) 26 Sep 09:52:27 09:55:44 19° 307° (NW) 09:59:02 437.305
BEESAT 3 26 Sep 09:54:44 09:58:03 24° 45° (NE) 10:01:20 437.485
AAUSAT CUBESAT 2 26 Sep 09:55:14 09:59:27 73° 101° (E) 10:03:37 437.432
DELFI C3 26 Sep 09:59:02 10:00:27 12° 89° (E) 10:01:51 145.870
FUNcube-1 26 Sep 10:06:39 10:10:38 36° 97° (E) 10:14:42 145.935
CINEMA 3 26 Sep 10:08:17 10:11:37 24° 293° (WNW) 10:14:58 145.822/145.860
UWE-3 26 Sep 10:13:36 10:17:53 74° 103° (ESE) 10:22:16 435.000/436.395/437.385
UNISAT 6 26 Sep 10:24:24 10:28:31 48° 72° (ENE) 10:32:38 437.425
Cosmos 2499 26 Sep 10:32:38 10:39:40 57° 283° (WNW) 10:46:38 435.465 / 435.565
PRISM 26 Sep 10:34:40 10:37:20 16° 268° (W) 10:40:00 437.425
COMPASS 1 26 Sep 10:37:58 10:41:41 30° 291° (WNW) 10:45:23 437.405
POPSAT HIP 1 26 Sep 10:42:30 10:43:32 11° 60° (ENE) 10:44:34 437.405
BEESAT 2 26 Sep 10:45:59 10:49:46 38° 49° (NE) 10:53:32 435.950
ZACube-1 26 Sep 10:47:24 10:51:41 75° 285° (WNW) 10:56:04 437.345
Oscar 11 26 Sep 10:49:10 10:53:32 75° 286° (WNW) 10:57:53 145.826/435.025
NANOSAT C BR1 26 Sep 10:58:33 11:01:02 15° 63° (ENE) 11:03:31 145.865
ANTELSAT 26 Sep 10:59:45 11:04:00 69° 258° (WSW) 11:08:16 437.575/2403.000
HO-68 26 Sep 10:59:53 11:05:50 30° 301° (WNW) 11:11:46 435.675
CUTE 1.7 + AOD 2 26 Sep 11:00:09 11:01:11 11° 300° (WNW) 11:02:14 437.475
SEEDS 26 Sep 11:04:19 11:06:17 13° 298° (WNW) 11:08:16 437.485
JAS-2 26 Sep 11:06:43 11:11:58 26° 58° (ENE) 11:17:41 435.910
QB50P2 26 Sep 11:18:52 11:22:26 28° 68° (ENE) 11:26:02 145.880/145.840
POLYITAN 1 26 Sep 11:21:06 11:24:40 28° 68° (ENE) 11:28:15 437.675
TIGRISAT 26 Sep 11:21:06 11:25:09 42° 261° (W) 11:29:13 435.000
GONETS M04 26 Sep 11:23:32 11:31:02 30° 294° (WNW) 11:38:38
HUMSAT D 26 Sep 11:24:27 11:28:38 55° 100° (E) 11:32:49 437.325/437.525
CUBEBUG 2 26 Sep 11:29:43 11:31:46 13° 297° (WNW) 11:33:49 437.445
DELFI C3 26 Sep 11:31:41 11:35:40 58° 286° (WNW) 11:39:36 145.870
BEESAT 3 26 Sep 11:32:07 11:35:48 36° 243° (WSW) 11:39:26 437.485
AAUSAT CUBESAT 2 26 Sep 11:32:53 11:34:19 12° 299° (WNW) 11:35:46 437.432
ESTCUBE 1 26 Sep 11:36:27 11:38:12 12° 89° (E) 11:39:58 437.505/2401.250
FUNcube-1 26 Sep 11:43:23 11:46:41 22° 293° (WNW) 11:50:03 145.935
UWE-3 26 Sep 11:52:13 11:53:48 12° 298° (WNW) 11:55:23 435.000/436.395/437.385
CUBEBUG 1 26 Sep 11:53:28 11:54:29 11° 89° (E) 11:55:29 437.445
DUCHIFAT 1 26 Sep 12:01:08 12:05:16 65° 74° (ENE) 12:09:25 145.980
QB50P1 26 Sep 12:01:08 12:05:20 75° 74° (ENE) 12:09:33 145.935-145.965
UNISAT 6 26 Sep 12:02:59 12:05:31 15° 269° (W) 12:08:03 437.425
BUGSAT 1 26 Sep 12:11:33 12:15:18 34° 70° (ENE) 12:19:01 437.445
POPSAT HIP 1 26 Sep 12:14:29 12:18:42 79° 259° (WSW) 12:22:55 437.405
Oscar 19 26 Sep 12:19:00 12:21:11 13° 57° (ENE) 12:23:21 437.125/150
BEESAT 2 26 Sep 12:24:16 12:27:22 21° 247° (WSW) 12:30:26 435.950
PHONESAT 2.4 26 Sep 12:31:51 12:34:13 22° 160° (SSE) 12:36:36 2401.200-2431.200
NANOSAT C BR1 26 Sep 12:32:16 12:36:21 51° 260° (W) 12:40:27 145.865
AISAT 26 Sep 12:34:40 12:38:19 25° 95° (E) 12:41:55 437.250
SPROUT 26 Sep 12:41:32 12:44:06 16° 91° (E) 12:46:40 437.525
JAS-2 26 Sep 12:49:57 12:56:17 67° 259° (W) 13:03:31 435.910
UKube-1 26 Sep 12:51:47 12:54:40 17° 92° (E) 12:57:33 .
AIST 2 26 Sep 12:52:38 12:56:26 32° 47° (NE) 13:00:14 435.215
QB50P2 26 Sep 12:54:38 12:58:12 26° 265° (W) 13:01:47 145.880/145.840
POLYITAN 1 26 Sep 12:56:53 13:00:26 26° 265° (W) 13:04:00 437.675
M-CUBED/EXP-1 PRIME 26 Sep 12:59:53 13:02:13 18° 100° (E) 13:04:33 437.505
HUMSAT D 26 Sep 13:01:22 13:03:49 15° 297° (WNW) 13:06:16 437.325/437.525
Gurwin Techsat 1B 26 Sep 13:01:30 13:04:30 15° 58° (ENE) 13:07:31 435.225
ESTCUBE 1 26 Sep 13:10:58 13:15:30 70° 286° (WNW) 13:20:00 437.505/2401.250
DX 1 26 Sep 13:16:02 13:20:09 40° 98° (E) 13:24:13 434.975-435.025
YUBILEINY 26 Sep 13:16:31 13:22:32 20° 60° (ENE) 13:28:30 435.215
VELOX 1 26 Sep 13:17:56 13:22:21 69° 102° (ESE) 13:26:43 145.980
AO-7 26 Sep 13:24:51 13:27:52 12° 40° (NE) 13:30:53 29.400- 29.500
CUBEBUG 1 26 Sep 13:26:55 13:31:16 72° 286° (WNW) 13:35:33 437.445
50 SAT 26 Sep 13:32:58 13:36:38 72° 286° (WNW) 13:40:17 437.505
DUCHIFAT 1 26 Sep 13:40:08 13:41:23 11° 271° (W) 13:42:38 145.980
BUGSAT 1 26 Sep 13:47:42 13:50:45 20° 266° (W) 13:53:48 437.445
PCSat 26 Sep 13:50:31 13:55:35 38° 50° (NE) 14:00:37 145.827
Oscar 19 26 Sep 13:54:29 13:59:41 85° 75° (ENE) 14:04:55 437.125/150
AUBIESAT-1 26 Sep 13:57:41 14:01:01 89° 116° (ESE) 14:04:19 437.475
PHONESAT 2.4 26 Sep 14:07:11 14:10:02 45° 175° (S) 14:12:53 2401.200-2431.200
TISAT 1 26 Sep 14:07:30 14:11:02 26° 96° (E) 14:14:33 437.305
AISAT 26 Sep 14:10:54 14:14:49 32° 292° (WNW) 14:18:41 437.250
SPROUT 26 Sep 14:16:13 14:20:19 48° 288° (WNW) 14:24:24 437.525
UKube-1 26 Sep 14:26:50 14:30:56 44° 289° (WNW) 14:35:02 .
AIST 2 26 Sep 14:31:13 14:34:51 28° 245° (WSW) 14:38:27 435.215
M-CUBED/EXP-1 PRIME 26 Sep 14:34:05 14:36:48 24° 296° (WNW) 14:39:28 437.505
Gurwin Techsat 1B 26 Sep 14:38:27 14:43:47 81° 258° (WSW) 14:49:07 435.225
JAS-2 26 Sep 14:41:56 14:42:55 10° 280° (W) 14:43:54 435.910
ITAMSAT 1 26 Sep 14:44:28 14:49:08 35° 67° (ENE) 14:53:49 435.822/435.867
DX 1 26 Sep 14:52:52 14:56:04 20° 296° (WNW) 14:59:15 434.975-435.025
VELOX 1 26 Sep 14:56:09 14:58:15 13° 299° (WNW) 15:00:20 145.980
SO-50 26 Sep 15:00:18 15:01:17 11° 107° (ESE) 15:02:16 436.795
Cosmos 2491 26 Sep 15:08:07 15:16:14 44° 87° (E) 15:24:25 435.465 / 435.565
AO-7 26 Sep 15:10:47 15:18:40 49° 62° (ENE) 15:26:31 29.400- 29.500
ITUPSAT 1 26 Sep 15:11:39 15:15:39 26° 95° (E) 15:19:39 437.325
YUBILEINY 26 Sep 15:11:56 15:20:41 88° 83° (E) 15:29:24 435.215
Cosmos 2504 26 Sep 15:13:11 15:19:55 37° 72° (ENE) 15:27:01 435.465 / 435.565
SWISSCUBE 26 Sep 15:25:20 15:29:52 39° 98° (E) 15:34:20 437.505
PCSat 26 Sep 15:34:03 15:38:56 35° 249° (WSW) 15:43:46 145.827
Oscar 19 26 Sep 15:37:40 15:39:40 12° 272° (W) 15:41:40 437.125/150
BEESAT 26 Sep 15:38:26 15:43:05 47° 100° (E) 15:47:42 436.000
TISAT 1 26 Sep 15:43:05 15:46:39 27° 292° (WNW) 15:50:10 437.305
PHONESAT 2.4 26 Sep 15:43:11 15:45:55 34° 192° (SSW) 15:48:40 2401.200-2431.200
KKS-1 26 Sep 16:21:07 16:23:30 14° 91° (E) 16:25:53 437.445
ITAMSAT 1 26 Sep 16:24:05 16:28:36 30° 264° (W) 16:33:10 435.822/435.867
SO-50 26 Sep 16:36:10 16:41:01 84° 121° (ESE) 16:45:49 436.795
AIST 1 26 Sep 16:38:15 16:42:05 31° 74° (ENE) 16:45:53
HORYU 2 26 Sep 16:40:05 16:43:28 22° 65° (ENE) 16:46:51 437.375
O/OREOS (USA 219) 26 Sep 16:42:10 16:45:04 16° 51° (NE) 16:47:57 437.305
ITUPSAT 1 26 Sep 16:49:09 16:53:34 37° 292° (WNW) 16:57:57 437.325
STARS 26 Sep 16:58:49 17:01:42 17° 92° (E) 17:04:36 437.465
SWISSCUBE 26 Sep 17:03:34 17:07:26 25° 295° (WNW) 17:11:18 437.505
AO-7 26 Sep 17:03:48 17:11:31 41° 261° (W) 17:19:16 29.400- 29.500
Cosmos 2491 26 Sep 17:04:49 17:13:04 44° 288° (WNW) 17:21:25 435.465 / 435.565
Cosmos 2504 26 Sep 17:06:28 17:13:21 44° 271° (W) 17:20:40 435.465 / 435.565
YUBILEINY 26 Sep 17:10:36 17:16:15 20° 283° (WNW) 17:21:55 435.215
BEESAT 26 Sep 17:16:59 17:20:31 21° 297° (WNW) 17:24:04 436.000
MOZHAYETS 4 26 Sep 17:19:05 17:23:45 88° 284° (WNW) 17:28:24
PHONESAT 2.4 26 Sep 17:20:19 17:21:33 12° 208° (SSW) 17:22:47 2401.200-2431.200
GOMX 1 26 Sep 17:40:54 17:45:15 26° 66° (ENE) 17:49:27 467.674
BRITE-PL 26 Sep 17:41:59 17:47:32 55° 72° (ENE) 17:53:00 437.365/2234.400
KKS-1 26 Sep 17:56:05 18:00:26 57° 287° (WNW) 18:04:45 437.445
HO-68 26 Sep 18:00:13 18:01:47 11° 45° (NE) 18:03:20 435.675
NOAA 15 26 Sep 18:00:13 18:05:10 41° 68° (ENE) 18:10:09 137.62
Cubesat XI-IV 26 Sep 18:10:47 18:15:43 41° 68° (ENE) 18:20:41 437.490
DOVE 4 26 Sep 18:10:59 18:14:38 21° 65° (ENE) 18:18:10 437.250
CUTE-I 26 Sep 18:11:25 18:16:23 42° 68° (ENE) 18:21:22 437.470
HORYU 2 26 Sep 18:15:41 18:19:47 38° 262° (W) 18:23:55 437.375
AIST 1 26 Sep 18:16:09 18:19:31 22° 272° (W) 18:22:49
LilacSat-2 26 Sep 18:18:44 18:22:14 38° 72° (ENE) 18:25:46 437.200
SO-50 26 Sep 18:18:45 18:22:05 18° 322° (NW) 18:25:25 436.795
O/OREOS (USA 219) 26 Sep 18:20:23 18:24:58 66° 250° (WSW) 18:29:30 437.305
STARS 26 Sep 18:34:07 18:38:18 46° 289° (WNW) 18:42:28 437.465
CUBESAT XI-V 26 Sep 18:34:34 18:39:18 77° 101° (ESE) 18:43:58 437.345
NOAA 18 26 Sep 18:39:03 18:44:26 62° 71° (ENE) 18:49:50 137.9125
RS-15 26 Sep 18:42:50 18:47:37 13° 93° (E) 18:52:29 29.354- 29.394
MOZHAYETS 4 26 Sep 18:58:58 19:00:10 11° 301° (WNW) 19:01:23
GOMX 1 26 Sep 19:17:53 19:23:04 46° 262° (W) 19:28:05 467.674
BRITE-PL 26 Sep 19:21:49 19:26:15 23° 269° (W) 19:30:39 437.365/2234.400
CUSAT 1 26 Sep 19:22:31 19:28:07 38° 87° (E) 19:34:51 437.405
CINEMA 3 26 Sep 19:33:28 19:37:29 33° 70° (ENE) 19:41:23 145.822/145.860
GONETS M04 26 Sep 19:34:04 19:41:56 34° 68° (ENE) 19:49:41
NOAA 15 26 Sep 19:40:35 19:45:03 27° 265° (W) 19:49:33 137.62
HO-68 26 Sep 19:41:00 19:47:52 50° 66° (ENE) 19:54:43 435.675
DOVE 4 26 Sep 19:47:07 19:52:01 50° 260° (W) 19:56:42 437.250
Cubesat XI-IV 26 Sep 19:51:27 19:55:54 27° 265° (W) 20:00:23 437.490
CUTE-I 26 Sep 19:52:08 19:56:33 26° 266° (W) 20:01:00 437.470
LilacSat-2 26 Sep 19:54:29 19:56:42 15° 268° (W) 19:58:57 437.200
COMPASS 1 26 Sep 19:54:51 19:57:52 20° 65° (ENE) 20:00:54 437.405
Oscar 11 26 Sep 20:12:45 20:13:28 10° 60° (ENE) 20:14:11 145.826/435.025
CUBESAT XI-V 26 Sep 20:13:50 20:16:02 13° 300° (WNW) 20:18:14 437.345
CUTE 1.7 + AOD 2 26 Sep 20:15:04 20:19:15 65° 75° (ENE) 20:23:29 437.475
CANX-2 26 Sep 20:15:59 20:20:12 78° 76° (ENE) 20:24:28 2200.000
SEEDS 26 Sep 20:19:22 20:23:25 50° 73° (ENE) 20:27:32 437.485
Cosmos 2499 26 Sep 20:20:43 20:28:00 52° 77° (ENE) 20:35:49 435.465 / 435.565
NOAA 18 26 Sep 20:21:47 20:25:31 19° 268° (W) 20:29:17 137.9125
STRAND 1 26 Sep 20:38:58 20:44:06 65° 102° (ESE) 20:49:13 437.568
DANDE 26 Sep 20:39:19 20:44:13 56° 93° (E) 20:50:43 436.750
AO-85 26 Sep 20:40:48 20:42:01 11° 107° (ESE) 20:43:14 145.980
RS-15 26 Sep 20:45:58 20:57:18 64° 115° (ESE) 21:09:13 29.354- 29.394
AAUSAT CUBESAT 2 26 Sep 20:46:09 20:50:12 54° 73° (ENE) 20:54:18 437.432
ISS 26 Sep 20:50:25 20:52:43 18° 134° (SE) 20:55:02 145.825
CUBEBUG 2 26 Sep 20:50:31 20:54:40 59° 74° (ENE) 20:58:46 437.445
FUNcube-1 26 Sep 21:03:28 21:07:07 31° 69° (ENE) 21:10:47 145.935
CUSAT 1 26 Sep 21:04:05 21:10:00 43° 291° (WNW) 21:17:09 437.405
CINEMA 3 26 Sep 21:11:02 21:14:41 24° 265° (W) 21:18:12 145.822/145.860
UWE-3 26 Sep 21:11:37 21:15:45 66° 74° (ENE) 21:19:53 435.000/436.395/437.385
COMPASS 1 26 Sep 21:29:15 21:33:09 38° 262° (W) 21:37:06 437.405
HO-68 26 Sep 21:29:26 21:35:46 33° 264° (W) 21:42:09 435.675
GONETS M04 26 Sep 21:30:38 21:39:10 57° 270° (W) 21:47:38
ZACube-1 26 Sep 21:44:08 21:48:17 85° 255° (WSW) 21:52:27 437.345
Oscar 11 26 Sep 21:44:36 21:48:54 86° 257° (WSW) 21:53:16 145.826/435.025
CUTE 1.7 + AOD 2 26 Sep 21:54:07 21:55:32 11° 271° (W) 21:56:57 437.475
SEEDS 26 Sep 21:57:04 21:59:26 15° 270° (W) 22:01:48 437.485
PRISM 26 Sep 22:13:08 22:17:16 62° 101° (ESE) 22:21:20 437.425
Cosmos 2499 26 Sep 22:14:22 22:20:48 32° 274° (W) 22:27:38 435.465 / 435.565
AO-85 26 Sep 22:16:36 22:21:49 79° 123° (ESE) 22:26:42 145.980
HUMSAT D 26 Sep 22:16:43 22:20:33 42° 72° (ENE) 22:24:27 437.325/437.525
DELFI C3 26 Sep 22:17:59 22:21:59 90° 251° (WSW) 22:26:02 145.870
STRAND 1 26 Sep 22:19:22 22:22:45 18° 299° (WNW) 22:26:08 437.568
DANDE 26 Sep 22:23:25 22:27:43 23° 300° (WNW) 22:32:57 436.750
AAUSAT CUBESAT 2 26 Sep 22:23:56 22:26:01 13° 270° (W) 22:28:07 437.432
ISS 26 Sep 22:25:41 22:28:55 61° 331° (NNW) 22:32:10 145.825
CUBEBUG 2 26 Sep 22:29:59 22:31:40 12° 270° (W) 22:33:21 437.445
ESTCUBE 1 26 Sep 22:37:05 22:39:28 14° 61° (ENE) 22:41:51 437.505/2401.250
FUNcube-1 26 Sep 22:40:09 22:43:24 22° 266° (W) 22:46:40 145.935
ANTELSAT 26 Sep 22:50:29 22:53:55 22° 94° (E) 22:57:22 437.575/2403.000
CUBEBUG 1 26 Sep 22:50:30 22:52:13 12° 60° (ENE) 22:53:56 437.445
UWE-3 26 Sep 22:51:46 22:52:40 11° 271° (W) 22:53:33 435.000/436.395/437.385
RS-15 26 Sep 22:59:04 23:10:22 48° 321° (NW) 23:22:11 29.354- 29.394
TIGRISAT 26 Sep 23:10:59 23:14:58 33° 97° (E) 23:19:00 435.000
AUBIESAT-1 26 Sep 23:12:11 23:14:06 13° 59° (ENE) 23:15:57 437.475
SO-50 26 Sep 23:27:11 23:30:18 18° 37° (NE) 23:33:22 436.795
AISAT 26 Sep 23:33:02 23:36:46 27° 67° (ENE) 23:40:30 437.250
SPROUT 26 Sep 23:36:39 23:39:03 15° 63° (ENE) 23:41:29 437.525
M-CUBED/EXP-1 PRIME 26 Sep 23:46:18 23:50:06 37° 67° (ENE) 23:53:40 437.505
QB50P1 26 Sep 23:47:05 23:48:14 11° 89° (E) 23:49:23 145.935-145.965
UKube-1 26 Sep 23:47:34 23:50:32 18° 64° (ENE) 23:53:30 .
PRISM 26 Sep 23:50:06 23:52:03 13° 299° (WNW) 23:54:00 437.425
UNISAT 6 26 Sep 23:50:54 23:55:19 86° 282° (WNW) 23:59:48 437.425
HUMSAT D 26 Sep 23:53:47 23:56:23 16° 268° (W) 23:59:01 437.325/437.525
JAS-2 26 Sep 23:58:50 00:04:44 23° 88° (E) 00:10:25 435.910
AO-85 26 Sep 23:59:06 00:02:46 20° 320° (NW) 00:06:16 145.980
POPSAT HIP 1 26 Sep 23:59:18 00:01:47 15° 91° (E) 00:04:15 437.405
ISS 27 Sep 00:03:17 00:05:53 21° 350° (N) 00:08:30 145.825
50 SAT 27 Sep 00:10:21 00:13:54 55° 74° (ENE) 00:17:30 437.505
ESTCUBE 1 27 Sep 00:11:13 00:15:43 68° 258° (WSW) 00:20:16 437.505/2401.250
DX 1 27 Sep 00:12:24 00:16:30 41° 70° (ENE) 00:20:37 434.975-435.025
NANOSAT C BR1 27 Sep 00:15:53 00:19:10 22° 94° (E) 00:22:26 145.865
VELOX 1 27 Sep 00:15:55 00:20:21 70° 75° (ENE) 00:24:47 145.980
CUBEBUG 1 27 Sep 00:23:27 00:27:53 77° 258° (WSW) 00:32:19 437.445
ANTELSAT 27 Sep 00:26:41 00:30:43 37° 290° (WNW) 00:34:50 437.575/2403.000
QB50P2 27 Sep 00:37:33 00:41:35 43° 99° (E) 00:45:36 145.880/145.840
POLYITAN 1 27 Sep 00:39:47 00:43:48 43° 99° (E) 00:47:50 437.675
